When you browse on this site, cookies collect data to enhance your experience and personalize the content and advertising you see.
Visit our Privacy Policy to learn more. By continuing to use the site, you agree to this use of cookies and data.
  • In Lithuania
  • List of Countries
  • For 7 days
  • Water Temperature
  • Satellite Maps
  • Weather Map
  • Weather Widgets
  • user-avatar
    Login

    Hourly Weather Phuket

    Today, 22 April, Monday

    Time Temperature Precipitation Wind Pressure Humidity
    00:00 +33°C° 0.4 mm 3 mps 750 mmHg 74%
    01:00 +33°C° 0 mm 3 mps 750 mmHg 75%
    02:00 +31°C° 0.1 mm 3 mps 750 mmHg 75%
    03:00 +31°C° 0.1 mm 3 mps 750 mmHg 75%
    04:00 +31°C° 0.1 mm 3 mps 750 mmHg 75%
    05:00 +31°C° 0.1 mm 3 mps 750 mmHg 76%
    06:00 +31°C° 0.1 mm 3 mps 750 mmHg 76%
    07:00 +31°C° 0.1 mm 3 mps 751 mmHg 76%
    08:00 +31°C° 0 mm 3 mps 751 mmHg 75%
    09:00 +32°C° 0 mm 2 mps 751 mmHg 74%
    10:00 +32°C° 0 mm 2 mps 752 mmHg 73%
    11:00 +32°C° 0 mm 2 mps 752 mmHg 71%
    12:00 +32°C° 0 mm 2 mps 751 mmHg 69%
    13:00 +34°C° 0 mm 2 mps 751 mmHg 68%
    14:00 +34°C° 0 mm 2 mps 750 mmHg 67%
    15:00 +34°C° 0 mm 3 mps 750 mmHg 67%
    16:00 +34°C° 0 mm 3 mps 749 mmHg 67%
    17:00 +34°C° 0 mm 3 mps 749 mmHg 68%
    18:00 +34°C° 0 mm 3 mps 749 mmHg 70%
    19:00 +34°C° 0 mm 3 mps 749 mmHg 72%
    20:00 +32°C° 0 mm 2 mps 750 mmHg 71%
    21:00 +32°C° 0 mm 1 mps 751 mmHg 71%
    22:00 +32°C° 0 mm 1 mps 751 mmHg 70%
    23:00 +32°C° 0 mm 1 mps 751 mmHg 71%

    Tomorrow, 23 April, Tuesday

    Time Temperature Precipitation Wind Pressure Humidity
    00:00 +32°C° 0 mm 2 mps 751 mmHg 71%
    01:00 +32°C° 0 mm 2 mps 752 mmHg 71%
    02:00 +31°C° 0 mm 3 mps 751 mmHg 72%
    03:00 +32°C° 0 mm 4 mps 751 mmHg 73%
    04:00 +32°C° 0 mm 4 mps 750 mmHg 73%
    05:00 +32°C° 0 mm 4 mps 751 mmHg 74%
    06:00 +32°C° 0 mm 5 mps 751 mmHg 74%
    07:00 +32°C° 0 mm 5 mps 751 mmHg 75%
    08:00 +32°C° 0 mm 5 mps 752 mmHg 74%
    09:00 +32°C° 0 mm 4 mps 752 mmHg 73%
    10:00 +32°C° 0 mm 4 mps 753 mmHg 72%
    11:00 +33°C° 0 mm 4 mps 752 mmHg 69%
    12:00 +33°C° 0 mm 3 mps 752 mmHg 66%
    13:00 +32°C° 0 mm 2 mps 752 mmHg 63%
    14:00 +34°C° 0 mm 3 mps 751 mmHg 63%
    15:00 +34°C° 0 mm 3 mps 750 mmHg 63%
    16:00 +34°C° 0 mm 4 mps 750 mmHg 63%
    17:00 +34°C° 0.2 mm 3 mps 750 mmHg 64%
    18:00 +34°C° 0.2 mm 3 mps 750 mmHg 64%
    19:00 +32°C° 0.2 mm 2 mps 750 mmHg 65%
    20:00 +32°C° 0.3 mm 2 mps 751 mmHg 64%
    21:00 +32°C° 0.3 mm 1 mps 752 mmHg 63%
    22:00 +30°C° 0.3 mm 0 mps 753 mmHg 61%
    23:00 +32°C° 0 mm 1 mps 752 mmHg 64%

    Day after tomorrow, 24 April, Wednesday

    Time Temperature Precipitation Wind Pressure Humidity
    00:00 +32°C° 0 mm 2 mps 752 mmHg 66%
    01:00 +33°C° 0 mm 3 mps 752 mmHg 69%
    02:00 +33°C° 0 mm 3 mps 752 mmHg 71%
    03:00 +31°C° 0 mm 3 mps 751 mmHg 73%
    04:00 +31°C° 0 mm 3 mps 751 mmHg 75%
    05:00 +31°C° 0.1 mm 3 mps 751 mmHg 75%
    06:00 +31°C° 0.1 mm 3 mps 752 mmHg 76%
    07:00 +31°C° 0.1 mm 3 mps 752 mmHg 76%
    08:00 +31°C° 0 mm 3 mps 753 mmHg 74%
    09:00 +33°C° 0 mm 3 mps 753 mmHg 73%
    10:00 +33°C° 0 mm 3 mps 754 mmHg 71%
    11:00 +33°C° 0 mm 3 mps 753 mmHg 68%
    12:00 +34°C° 0 mm 2 mps 753 mmHg 66%
    13:00 +34°C° 0 mm 2 mps 752 mmHg 63%
    14:00 +34°C° 0 mm 2 mps 751 mmHg 64%
    15:00 +34°C° 0 mm 2 mps 750 mmHg 64%
    16:00 +34°C° 0 mm 2 mps 750 mmHg 65%
    17:00 +34°C° 0 mm 2 mps 750 mmHg 67%
    18:00 +34°C° 0 mm 2 mps 750 mmHg 68%
    19:00 +34°C° 0 mm 2 mps 750 mmHg 70%
    20:00 +32°C° 0 mm 2 mps 751 mmHg 70%
    21:00 +32°C° 0 mm 1 mps 752 mmHg 70%
    22:00 +32°C° 0 mm 1 mps 752 mmHg 69%
    23:00 +32°C° 0 mm 1 mps 752 mmHg 71%

    25 April, Thursday

    Time Temperature Precipitation Wind Pressure Humidity
    00:00 +32°C° 0 mm 2 mps 752 mmHg 72%
    01:00 +32°C° 0 mm 2 mps 752 mmHg 73%
    02:00 +32°C° 0 mm 2 mps 751 mmHg 74%
    03:00 +31°C° 0 mm 2 mps 751 mmHg 74%
    04:00 +31°C° 0 mm 3 mps 750 mmHg 75%
    05:00 +31°C° 0 mm 3 mps 751 mmHg 75%
    06:00 +31°C° 0 mm 3 mps 751 mmHg 76%
    07:00 +31°C° 0 mm 3 mps 752 mmHg 76%
    08:00 +31°C° 0 mm 3 mps 752 mmHg 74%
    09:00 +31°C° 0 mm 3 mps 753 mmHg 73%
    10:00 +33°C° 0 mm 3 mps 753 mmHg 71%
    11:00 +33°C° 0 mm 3 mps 753 mmHg 68%
    12:00 +33°C° 0 mm 3 mps 752 mmHg 66%
    13:00 +34°C° 0 mm 2 mps 752 mmHg 63%
    14:00 +34°C° 0 mm 3 mps 751 mmHg 63%
    15:00 +34°C° 0 mm 4 mps 750 mmHg 63%
    16:00 +34°C° 0 mm 5 mps 749 mmHg 64%
    17:00 +34°C° 0 mm 4 mps 750 mmHg 65%
    18:00 +34°C° 0 mm 3 mps 750 mmHg 67%
    19:00 +32°C° 0 mm 2 mps 751 mmHg 68%
    20:00 +32°C° 0 mm 2 mps 751 mmHg 68%
    21:00 +32°C° 0 mm 2 mps 752 mmHg 68%
    22:00 +32°C° 0 mm 2 mps 752 mmHg 67%
    23:00 +32°C° 0 mm 2 mps 752 mmHg 68%

    26 April, Friday

    Time Temperature Precipitation Wind Pressure Humidity
    00:00 +32°C° 0 mm 2 mps 752 mmHg 68%
    01:00 +32°C° 0 mm 2 mps 751 mmHg 69%
    02:00 +32°C° 0 mm 2 mps 751 mmHg 70%
    03:00 +31°C° 0 mm 2 mps 751 mmHg 71%
    04:00 +31°C° 0 mm 2 mps 750 mmHg 72%
    05:00 +31°C° 0 mm 2 mps 751 mmHg 72%
    06:00 +31°C° 0 mm 2 mps 751 mmHg 73%
    07:00 +31°C° 0 mm 2 mps 752 mmHg 74%
    08:00 +31°C° 0 mm 2 mps 752 mmHg 71%
    09:00 +31°C° 0 mm 2 mps 753 mmHg 69%
    10:00 +32°C° 0 mm 2 mps 753 mmHg 66%
    11:00 +32°C° 0 mm 2 mps 753 mmHg 64%
    12:00 +32°C° 0 mm 2 mps 752 mmHg 63%
    13:00 +34°C° 0 mm 2 mps 751 mmHg 61%
    14:00 +34°C° 0 mm 2 mps 751 mmHg 61%
    15:00 +34°C° 0 mm 3 mps 750 mmHg 62%
    16:00 +34°C° 0 mm 4 mps 750 mmHg 62%
    17:00 +34°C° 0 mm 4 mps 750 mmHg 64%
    18:00 +34°C° 0 mm 3 mps 750 mmHg 66%
    19:00 +33°C° 0 mm 3 mps 751 mmHg 69%
    20:00 +33°C° 0 mm 3 mps 751 mmHg 69%
    21:00 +32°C° 0 mm 2 mps 752 mmHg 69%
    22:00 +32°C° 0 mm 2 mps 752 mmHg 69%
    23:00 +32°C° 0 mm 2 mps 752 mmHg 70%

    27 April, Saturday

    Time Temperature Precipitation Wind Pressure Humidity
    00:00 +32°C° 0 mm 2 mps 752 mmHg 70%
    01:00 +32°C° 0 mm 2 mps 752 mmHg 70%
    02:00 +32°C° 0 mm 1 mps 751 mmHg 70%
    03:00 +32°C° 0 mm 1 mps 751 mmHg 70%
    04:00 +31°C° 0 mm 1 mps 751 mmHg 70%
    05:00 +31°C° 0 mm 1 mps 751 mmHg 71%
    06:00 +31°C° 0 mm 1 mps 752 mmHg 71%
    07:00 +31°C° 0 mm 1 mps 752 mmHg 71%
    08:00 +31°C° 0 mm 1 mps 753 mmHg 71%
    09:00 +32°C° 0 mm 1 mps 753 mmHg 70%
    10:00 +32°C° 0 mm 1 mps 754 mmHg 70%
    11:00 +32°C° 0 mm 1 mps 753 mmHg 68%
    12:00 +33°C° 0 mm 1 mps 752 mmHg 66%
    13:00 +33°C° 0 mm 1 mps 752 mmHg 63%
    14:00 +34°C° 0 mm 2 mps 751 mmHg 62%
    15:00 +34°C° 0 mm 3 mps 751 mmHg 62%
    16:00 +34°C° 0 mm 3 mps 750 mmHg 61%
    17:00 +34°C° 0 mm 4 mps 751 mmHg 64%
    18:00 +34°C° 0 mm 4 mps 751 mmHg 67%
    19:00 +34°C° 0 mm 4 mps 751 mmHg 70%
    20:00 +34°C° 0 mm 3 mps 752 mmHg 69%
    21:00 +32°C° 0 mm 2 mps 752 mmHg 69%
    22:00 +32°C° 0 mm 1 mps 753 mmHg 68%
    23:00 +32°C° 0 mm 1 mps 753 mmHg 68%
    Show more